This is the latest recevied weather packets stored in our database for station/object KMOB. If no packets are shown the sender has not sent any weather packets the latest 10 day(s).
| Time | Temp. | Humidity | Pressure | Rain* | Wind** | Luminosity | Snow |
|---|---|---|---|---|---|---|---|
| 1777509216 | 21.67° C | 94% | 1013.9 hPa | - | - | - | - |
| 1777508616 | 22.78° C | 94% | 1013.2 hPa | - | - | - | - |
| 1777508017 | 22.78° C | 94% | 1013.2 hPa | - | - | - | - |
| 1777507419 | 22.78° C | 94% | 1013.2 hPa | - | - | - | - |
| 1777506817 | 25° C | 78% | 1012.5 hPa | - | - | - | - |
| 1777506218 | 25° C | 78% | 1012.5 hPa | - | - | - | - |
| 1777505617 | 25° C | 78% | 1012.5 hPa | - | - | - | - |
| 1777505018 | 25° C | 78% | 1012.5 hPa | - | - | - | - |
| 1777504417 | 25° C | 78% | 1012.5 hPa | - | - | - | - |
| 1777503820 | 25° C | 78% | 1012.5 hPa | - | - | - | - |
| 1777503216 | 25° C | 73% | 1012.2 hPa | - | - | - | - |
| 1777502618 | 25° C | 73% | 1012.2 hPa | - | - | - | - |
| 1777502017 | 25° C | 73% | 1012.2 hPa | - | - | - | - |
| 1777501416 | 25° C | 73% | 1012.2 hPa | - | - | - | - |
| 1777500819 | 25.56° C | 69% | 1011.9 hPa | - | - | - | - |
| 1777500219 | 25.56° C | 69% | 1011.9 hPa | - | - | - | - |
| 1777499622 | 26.67° C | 61% | 1011.9 hPa | - | - | - | - |
| 1777499020 | 26.67° C | 61% | 1011.9 hPa | - | - | - | - |
| 1777498417 | 26.67° C | 61% | 1011.9 hPa | - | - | - | - |
| 1777497818 | 26.67° C | 61% | 1011.9 hPa | - | - | - | - |
| 1777497220 | 26.67° C | 61% | 1011.9 hPa | - | - | - | - |
| 1777496620 | 26.67° C | 61% | 1011.9 hPa | - | - | - | - |
| 1777496021 | 28.89° C | 58% | 1012.9 hPa | - | - | - | - |
| 1777495420 | 28.89° C | 58% | 1012.9 hPa | - | - | - | - |
| 1777494819 | 28.89° C | 58% | 1012.9 hPa | - | - | - | - |
* Rain since midnight (hover to see other rain measurements)
** Current wind speed in m/s (hover to see current wind gust speed)